TimeCDT,TemperatureF,Dew PointF,Humidity,Sea Level PressureIn,VisibilityMPH,Wind Direction,Wind SpeedMPH,Gust SpeedMPH,PrecipitationIn,Events,Conditions,WindDirDegrees,DateUTC
12:25 AM,39.2,39.2,100,30.36,10.0,Calm,Calm,-,N/A,,Mostly Cloudy,0,2013-09-17 05:25:00
12:53 AM,44.1,43.0,96,30.38,10.0,Calm,Calm,-,N/A,,Mostly Cloudy,0,2013-09-17 05:53:00
1:14 AM,44.6,42.8,93,30.36,10.0,Calm,Calm,-,N/A,,Scattered Clouds,0,2013-09-17 06:14:00
1:53 AM,39.9,39.9,100,30.38,10.0,Calm,Calm,-,N/A,,Partly Cloudy,0,2013-09-17 06:53:00
2:53 AM,39.0,39.0,100,30.37,10.0,Calm,Calm,-,N/A,,Clear,0,2013-09-17 07:53:00
3:53 AM,37.0,37.0,100,30.37,8.0,Calm,Calm,-,N/A,,Clear,0,2013-09-17 08:53:00
4:53 AM,37.9,37.9,100,30.36,10.0,Calm,Calm,-,N/A,,Clear,0,2013-09-17 09:53:00
5:53 AM,39.0,39.0,100,30.36,10.0,Calm,Calm,-,N/A,,Clear,0,2013-09-17 10:53:00
6:01 AM,39.2,39.2,100,30.35,1.8,Calm,Calm,-,N/A,,Clear,0,2013-09-17 11:01:00
6:10 AM,39.2,39.2,100,30.34,4.0,Calm,Calm,-,N/A,,Clear,0,2013-09-17 11:10:00
6:53 AM,37.9,37.9,100,30.36,10.0,Calm,Calm,-,N/A,,Clear,0,2013-09-17 11:53:00
7:53 AM,46.9,46.0,97,30.36,9.0,Calm,Calm,-,N/A,,Scattered Clouds,0,2013-09-17 12:53:00
8:53 AM,55.9,52.0,87,30.36,10.0,Calm,Calm,-,N/A,,Mostly Cloudy,0,2013-09-17 13:53:00
9:53 AM,62.1,52.0,70,30.35,10.0,Variable,4.6,-,N/A,,Partly Cloudy,0,2013-09-17 14:53:00
10:30 AM,62.6,51.8,68,30.33,10.0,South,9.2,-,N/A,,Mostly Cloudy,180,2013-09-17 15:30:00
10:53 AM,62.1,51.1,67,30.34,10.0,SSE,9.2,-,N/A,,Mostly Cloudy,150,2013-09-17 15:53:00
11:53 AM,63.0,52.0,67,30.32,10.0,SSE,9.2,-,N/A,,Overcast,160,2013-09-17 16:53:00
12:53 PM,63.0,53.1,70,30.30,10.0,SSE,10.4,-,N/A,,Overcast,160,2013-09-17 17:53:00
1:53 PM,62.1,53.1,72,30.28,10.0,SSE,11.5,-,N/A,,Mostly Cloudy,150,2013-09-17 18:53:00
2:53 PM,63.0,54.0,72,30.26,10.0,SSE,9.2,-,N/A,,Partly Cloudy,160,2013-09-17 19:53:00
3:53 PM,61.0,54.0,78,30.24,10.0,SE,8.1,-,N/A,,Scattered Clouds,140,2013-09-17 20:53:00
4:02 PM,60.8,53.6,77,30.22,10.0,SE,11.5,19.6,N/A,,Mostly Cloudy,140,2013-09-17 21:02:00
4:53 PM,61.0,53.1,75,30.22,10.0,SSE,10.4,18.4,N/A,,Mostly Cloudy,150,2013-09-17 21:53:00
5:25 PM,60.8,53.6,77,30.20,10.0,SSE,10.4,-,N/A,,Scattered Clouds,160,2013-09-17 22:25:00
5:53 PM,60.1,53.1,78,30.21,10.0,SSE,9.2,-,N/A,,Mostly Cloudy,150,2013-09-17 22:53:00
6:49 PM,59.0,53.6,82,30.18,10.0,SSE,5.8,-,N/A,,Scattered Clouds,150,2013-09-17 23:49:00
6:53 PM,59.0,53.1,81,30.19,10.0,SSE,6.9,-,N/A,,Partly Cloudy,150,2013-09-17 23:53:00
7:53 PM,57.9,52.0,81,30.18,10.0,SSE,5.8,-,N/A,,Clear,150,2013-09-18 00:53:00
8:53 PM,57.9,53.1,84,30.17,10.0,SSE,4.6,-,N/A,,Clear,160,2013-09-18 01:53:00
9:53 PM,57.0,53.1,87,30.16,10.0,SSE,3.5,-,N/A,,Clear,160,2013-09-18 02:53:00
10:53 PM,55.0,53.1,93,30.15,10.0,Calm,Calm,-,N/A,,Clear,0,2013-09-18 03:53:00
11:53 PM,53.1,53.1,100,30.13,10.0,South,3.5,-,N/A,,Clear,170,2013-09-18 04:53:00